Change the Weather History Date:

Wednesday, October 26, 2011

  Actual Average Record
Temperature  
Mean Temperature 70 °F -  
Max Temperature 82 °F 76 °F 89 °F (2010)
Min Temperature 60 °F 54 °F 39 °F (1965)
Cooling Degree Days 6    
Growing Degree Days 20 (Base 50)    
Moisture  
Dew Point 58 °F    
Average Humidity 67    
Maximum Humidity 93    
Minimum Humidity 36    
Precipitation  
Precipitation 0.00 in - - ()
Sea Level Pressure  
Sea Level Pressure 30.03 in    
Wind  
Wind Speed 4 mph (ESE)    
Max Wind Speed 12 mph    
Max Gust Speed -    
Visibility 9 miles    
Events Fog    
Averages and records for this station are not official NWS values.
T = Trace of Precipitation, MM = Missing Value Source: NWS Daily Summary

Daily Weather History Graph

Daily Weather History Graph

Search for Another Location

Airport or City:

Trip Planner

Search our weather history database for the weather conditions in past years. The results will help you decide how hot, cold, wet, or windy it might be!

Date:

Astronomy

Oct. 26, 2011 Rise Set
Actual Time 7:10 AM CDT 6:19 PM CDT
Civil Twilight 6:45 AM CDT 6:43 PM CDT
Nautical Twilight 6:17 AM CDT 7:11 PM CDT
Astronomical Twilight 5:49 AM CDT 7:39 PM CDT
Moon 6:54 AM CDT (10/26) 6:07 PM CDT (10/26)
Length of Visible Light 11h 57m
Length of Day
11h 09m
Waning Crescent, 0% of the Moon is Illuminated
Oct 26
Waning Crescent
Oct 26
New
Nov 2
First Quarter
Nov 10
Full
Nov 18
Last Quarter

Hourly Weather History & Observations

Time (CDT) Temp. Heat Index Dew Point Humidity Pressure Visibility Wind Dir Wind Speed Gust Speed Precip Events Conditions
12:53 AM 66.9 °F - 59.0 °F 76% 30.09 in 10.0 mi ESE 5.8 mph - N/A   Clear
1:53 AM 63.0 °F - 57.9 °F 84% 30.08 in 10.0 mi East 3.5 mph - N/A   Clear
2:53 AM 62.1 °F - 57.9 °F 86% 30.07 in 8.0 mi Calm Calm - N/A   Clear
3:53 AM 60.1 °F - 57.0 °F 90% 30.05 in 9.0 mi Calm Calm - N/A   Clear
4:53 AM 61.0 °F - 57.0 °F 87% 30.05 in 8.0 mi Calm Calm - N/A   Partly Cloudy
5:53 AM 61.0 °F - 57.0 °F 87% 30.05 in 8.0 mi Calm Calm - N/A   Scattered Clouds
6:53 AM 60.1 °F - 57.0 °F 90% 30.06 in 7.0 mi Calm Calm - N/A Fog Shallow Fog
7:53 AM 62.1 °F - 60.1 °F 93% 30.08 in 5.0 mi Calm Calm - N/A Fog Shallow Fog
8:53 AM 72.0 °F - 62.1 °F 71% 30.09 in 10.0 mi ESE 4.6 mph - N/A   Clear
9:53 AM 75.9 °F - 57.9 °F 54% 30.09 in 10.0 mi SE 8.1 mph - N/A   Partly Cloudy
10:53 AM 78.1 °F - 55.0 °F 45% 30.09 in 10.0 mi SSE 8.1 mph - N/A   Partly Cloudy
11:53 AM 79.0 °F - 55.0 °F 44% 30.09 in 10.0 mi SSW 8.1 mph - N/A   Partly Cloudy
12:53 PM 80.1 °F - 52.0 °F 38% 30.06 in 10.0 mi SSW 3.5 mph - N/A   Partly Cloudy
1:53 PM 81.0 °F - 52.0 °F 36% 30.02 in 10.0 mi Calm Calm - N/A   Scattered Clouds
2:53 PM 81.0 °F 81.0 °F 57.0 °F 44% 29.99 in 10.0 mi NNE 10.4 mph - N/A   Partly Cloudy
3:53 PM 80.1 °F 80.2 °F 55.9 °F 43% 29.98 in 10.0 mi NNE 11.5 mph - N/A   Partly Cloudy
4:53 PM 78.1 °F - 55.0 °F 45% 29.97 in 10.0 mi NE 10.4 mph - N/A   Partly Cloudy
5:53 PM 75.9 °F - 59.0 °F 56% 29.96 in 10.0 mi NE 6.9 mph - N/A   Partly Cloudy
6:53 PM 73.9 °F - 59.0 °F 59% 29.96 in 10.0 mi ESE 5.8 mph - N/A   Partly Cloudy
7:53 PM 71.1 °F - 59.0 °F 66% 29.98 in 10.0 mi ESE 5.8 mph - N/A   Clear
8:53 PM 70.0 °F - 61.0 °F 73% 29.98 in 10.0 mi ESE 6.9 mph - N/A   Clear
9:53 PM 69.1 °F - 61.0 °F 75% 29.99 in 10.0 mi ESE 6.9 mph - N/A   Clear
10:53 PM 66.9 °F - 61.0 °F 81% 29.99 in 10.0 mi SE 4.6 mph - N/A   Clear
11:53 PM 66.0 °F - 61.0 °F 84% 29.98 in 10.0 mi SE 5.8 mph - N/A   Clear